Preview of NWS' New Version of Forecast
This preview is not operational and should not be used for support decisions.

Regional Weather Roundup (RWR)

Issued by National Weather Service (NWS)

                            
000
ASCA42 TJSJ 182010
RWRPR 
PUERTO RICO/U.S. VIRGIN ISLANDS HOURLY WEATHER ROUNDUP
NATIONAL WEATHER SERVICE SAN JUAN PR
400 PM AST FRI JAN 18 2019

PRZ001>002-007>008-010-182100-
PUERTO RICO
  
CITY           SKY/WX    TMP DP  RH WIND       PRES   REMARKS
SAN JUAN LMM   PTSUNNY   81  66  61 E12       30.01F                  
AGUADILLA      MOSUNNY   81  72  74 E12G17    30.03S                  
CEIBA          PTSUNNY   79  66  65 E7        30.03F                  
$$

VIZ001>002-182100-
U.S. VIRGIN ISLANDS
  
CITY           SKY/WX    TMP DP  RH WIND       PRES   REMARKS
CHARLOTTE AMA  MOSUNNY   82  66  57 SE9       30.01F                  
CHRISTIANSTED  MOSUNNY   82  66  57 E14       30.01F                  
$$

HOURLY WEATHER ROUNDUP FOR THE NEWS MEDIA
  
CITY           SKY/WX    TMP DP  RH WIND       PRES   REMARKS
ORLANDO        FAIR      74  35  24 CALM      30.09F                  
NEW YORK       CLOUDY    38  35  89 SW8       30.06S WCI  32          
NEWARK         CLOUDY    37  32  82 SW5       30.04F WCI  33          
CHICAGO        FLURRIES  28  20  71 NE10      30.16S WCI  19          
HARTFORD       CLOUDY    39  34  82 S6        30.03S WCI  35          
BOSTON         PTSUNNY   42  27  55 VRB5      30.01F                  
DALLAS         CLOUDY    63  56  78 S14G22    29.76F                  
PHILADELPHIA   CLOUDY    37  33  85 W6        30.09  FOG     WCI  32  
LOS ANGELES    PTSUNNY   64  53  67 CALM      30.24F                  
WASHINGTON DC  FAIR      39  35  86 CALM      30.08R